sat.trackr.live / text

‹ back to catalog

STARLINK-32522

NORAD 61981 · 2024-210Y

PAYLOAD ACTIVE UNKNOWN

§ Identity

Operator
Country
US
Launch date
2024-11-14
Launch site
AFETR
Launch vehicle
Mass (kg)
RCS (m²)

Purposes: comms

External: N2YO · Heavens-Above · Gunter

§ Orbital elements

Epoch: 2026-09-21T09:51:14.832576Z

Period
94.27 min
Inclination
43.0018°
Eccentricity
0.0001200
Mean motion
15.27592223 rev/d
Perigee alt
482.2 km
Apogee alt
483.8 km
Semi-major
6,861.1 km
B*
2.9207e-4
RAAN
154.4352°
Arg perigee
283.2091°
Mean anomaly
76.8627°
Rev number
10,481

§ Raw data

STARLINK-325221 61981U 24210Y   26264.41058834  .00007786  00000+0  29207-3 0  99972 61981  43.0018 154.4352 0001200 283.2091  76.8627 15.27592223104813

JSON: /api/v1/satellites/61981 · /tle

For live sub-satellite position, see the globe view (requires WebGL).

§ Visibility from observer

Set your observer location to see the next 7 days of passes ≥ 10°. The values pass through the URL so the page stays shareable.

No JS? Fill the form by hand. The geolocation button needs JavaScript.